Regional Weather Roundup
Issued by NWS

Home | Current Version | Previous Version | Text Only | Print | Product List | Glossary On
Versions: 1 2 3 4 5 6 7 8 9 10 11 12 13 14 15 16 17 18 19 20 21 22 23 24 25 26 27 28 29 30 31 32 33 34 35 36 37 38 39 40 41 42 43 44 45 46 47 48 49 50
000
ASUS42 KFFC 210410
RWRGA
WEATHER ROUNDUP FOR GEORGIA
NATIONAL WEATHER SERVICE PEACHTREE CITY GA
1100 PM EST FRI JAN 20 2017

NOTE: "FAIR" INDICATES FEW OR NO CLOUDS BELOW 12,000 FEET WITH NO
SIGNIFICANT WEATHER AND/OR OBSTRUCTIONS TO VISIBILITY.

* = USE WITH CAUTION. THE STATIONS MARKED WITH AN ASTERISK MAY NOT
REPORT WEATHER SUCH AS PRECIPITATION, FOG, OR THUNDER AND ARE NOT
QUALITY CONTROLLED BY NWS.

THE REMARK "TC" DENOTES TEMPERATURE READING IN DEGREES CELSIUS.

GAZ001>058-210500-
NORTH GEORGIA

CITY           SKY/WX    TMP DP  RH WIND       PRES   REMARKS
ATLANTA        PTCLDY    63  59  87 S5        29.88S
ATHENS         PTCLDY    60  57  89 CALM      29.89S
CHAMBLEE       CLEAR     59  56  89 SE3       29.88F
PEACHTREE CITY PTCLDY    55  54  96 CALM      29.88S
ROME           CLEAR     56  53  90 CALM      29.84S
WEST ATLANTA   PTCLDY    57  54  89 E3        29.87F
GAINESVILLE    CLEAR     61  57  87 SW3       29.90F
CARTERSVILLE   CLEAR     61  58  90 S7        29.86F


CITY           SKY/WX    TMP DP  RH WIND       PRES   REMARKS
DALTON*        PTCLDY    59  54  82 CALM      29.86R
MARIETTA       PTCLDY    56  54  93 CALM      29.87F
KENNESAW*      PTCLDY    57  55  94 CALM      29.88F
CANTON*        CLEAR     57  50  77 CALM      29.89S
$$

GAZ059>098-102>109-210500-
CENTRAL GEORGIA

CITY           SKY/WX    TMP DP  RH WIND       PRES   REMARKS
AUGUSTA-BUSH   PTCLDY    62  57  83 CALM      29.89S
AUGUSTA-DANIEL MOCLDY    65  57  75 CALM      29.90S
COLUMBUS       CLOUDY    64  62  93 CALM      29.87R
MACON          CLEAR     64  60  87 SE3       29.88R
ROBINS AFB     CLEAR     64  61  91 S7        29.88R


CITY           SKY/WX    TMP DP  RH WIND       PRES   REMARKS
LAGRANGE*      FOG       57  57 100 CALM      29.87S VSB 1/4
SYLVANIA*      CLOUDY   N/A N/A N/A CALM      29.92S
MILLEDGEVILLE* CLEAR     59  59 100 CALM      29.90R
$$

GAZ099>101-110>166-210500-
SOUTH GEORGIA

CITY           SKY/WX    TMP DP  RH WIND       PRES   REMARKS
SAVANNAH       CLOUDY    66  62  87 S7        29.93S
VALDOSTA       MOCLDY    69  67  93 S5        29.94S
ALMA           CLOUDY    69  67  93 SW7       29.92S
ST SIMONS      CLOUDY    70  63  78 SW7       29.93S
FT STEWART     LGT RAIN  64  63  94 CALM      29.91R
ALBANY         PTCLDY    67  66  97 S6        29.90S
HUNTER AFB     PTCLDY    65  65 100 CALM      29.91S
MOODY AFB      PTCLDY    68  66  94 S9        29.92S
BRUNSWICK      CLOUDY    72  66  83 SW6       29.94S


CITY           SKY/WX    TMP DP  RH WIND       PRES   REMARKS
BAINBRIDGE*    PTCLDY    66  64  94 S3        29.90S
MOULTRIE*      PTCLDY    68  64  88 S3        29.92S
VIDALIA*       CLOUDY    66  66 100 S6        29.91F
WAYCROSS*      CLOUDY    73  73 100 SW8       29.93S
DOUGLAS*       CLOUDY    68  64  88 S3        29.93S
$$



USA.gov is the U.S. government's official web portal to all federal, state and local government web resources and services.